| time (UTC) | temp F | wind direction | speed MPH | gust MPH | rain 1hr in | rain 24hr in | rain mn in | humidity % | barometer mb |
| 20260507130506 | 60 | 304 | 0.0 | 0.0 | 0.00 | 0.00 | 0.00 | 55 | 1016.8 |
| 20260507130034 | 59 | 304 | 0.0 | 2.0 | 0.00 | 0.00 | 0.00 | 58 | 1016.7 |
| 20260507125554 | 59 | 304 | 0.0 | 2.0 | 0.00 | 0.00 | 0.00 | 57 | 1016.8 |
| 20260507125008 | 60 | 119 | 0.0 | 1.0 | 0.00 | 0.00 | 0.00 | 55 | 1016.8 |
| 20260507124545 | 59 | 119 | 0.0 | 1.0 | 0.00 | 0.00 | 0.00 | 57 | 1016.8 |
| 20260507124053 | 60 | 204 | 0.0 | 0.0 | 0.00 | 0.00 | 0.00 | 58 | 1016.8 |
| 20260507123558 | 59 | 204 | 0.0 | 3.0 | 0.00 | 0.00 | 0.00 | 59 | 1016.7 |
| 20260507123015 | 59 | 204 | 1.0 | 3.0 | 0.00 | 0.00 | 0.00 | 54 | 1016.7 |
| 20260507122518 | 60 | 236 | 0.0 | 3.0 | 0.00 | 0.00 | 0.00 | 57 | 1016.7 |
| 20260507122039 | 60 | 330 | 0.0 | 3.0 | 0.00 | 0.00 | 0.00 | 57 | 1016.7 |
| 20260507121604 | 60 | 228 | 0.0 | 1.0 | 0.00 | 0.00 | 0.00 | 55 | 1016.7 |
| 20260507121025 | 60 | 246 | 0.0 | 2.0 | 0.00 | 0.00 | 0.00 | 58 | 1016.7 |
| 20260507120548 | 59 | 246 | 0.0 | 2.0 | 0.00 | 0.00 | 0.00 | 55 | 1016.7 |
| 20260507120057 | 60 | 265 | 0.0 | 3.0 | 0.00 | 0.00 | 0.00 | 56 | 1016.7 |
| 20260507115518 | 59 | 286 | 0.0 | 3.0 | 0.00 | 0.00 | 0.00 | 55 | 1016.7 |
| 20260507115028 | 59 | 268 | 0.0 | 2.0 | 0.00 | 0.00 | 0.00 | 57 | 1016.7 |
| 20260507114608 | 59 | 250 | 0.0 | 2.0 | 0.00 | 0.00 | 0.00 | 57 | 1016.7 |
| 20260507114012 | 59 | 261 | 0.0 | 2.0 | 0.00 | 0.00 | 0.00 | 60 | 1016.7 |
| 20260507113532 | 59 | 261 | 0.0 | 2.0 | 0.00 | 0.00 | 0.00 | 59 | 1016.7 |
| 20260507113036 | 59 | 260 | 0.0 | 1.0 | 0.00 | 0.00 | 0.00 | 62 | 1016.6 |
| 20260507112601 | 59 | 261 | 0.0 | 1.0 | 0.00 | 0.00 | 0.00 | 61 | 1016.7 |
| 20260507112019 | 59 | 247 | 0.0 | 1.0 | 0.00 | 0.00 | 0.00 | 58 | 1016.7 |
| 20260507111543 | 58 | 287 | 0.0 | 1.0 | 0.00 | 0.00 | 0.00 | 61 | 1016.7 |
| 20260507111000 | 59 | 298 | 0.0 | 2.0 | 0.00 | 0.00 | 0.00 | 57 | 1016.8 |
| 20260507110506 | 59 | 304 | 0.0 | 2.0 | 0.00 | 0.00 | 0.00 | 58 | 1016.8 |
| 20260507110039 | 59 | 268 | 0.0 | 4.0 | 0.00 | 0.00 | 0.00 | 60 | 1016.8 |
| 20260507105533 | 59 | 272 | 1.0 | 4.0 | 0.00 | 0.00 | 0.00 | 59 | 1016.8 |
| 20260507105101 | 59 | 277 | 0.0 | 0.0 | 0.00 | 0.00 | 0.00 | 64 | 1016.9 |
| 20260507104520 | 58 | 277 | 0.0 | 0.0 | 0.00 | 0.00 | 0.00 | 68 | 1016.8 |
| 20260507104047 | 57 | 277 | 0.0 | 0.0 | 0.00 | 0.00 | 0.00 | 62 | 1016.9 |
| 20260507103546 | 57 | 277 | 0.0 | 1.0 | 0.00 | 0.00 | 0.00 | 67 | 1016.9 |
| 20260507103050 | 57 | 277 | 0.0 | 2.0 | 0.00 | 0.00 | 0.00 | 64 | 1016.9 |
| 20260507102506 | 57 | 277 | 0.0 | 4.0 | 0.00 | 0.00 | 0.00 | 64 | 1016.9 |
| 20260507102031 | 57 | 283 | 0.0 | 4.0 | 0.00 | 0.00 | 0.00 | 65 | 1017.0 |
| 20260507101556 | 56 | 266 | 0.0 | 3.0 | 0.00 | 0.00 | 0.00 | 64 | 1017.0 |
| 20260507101013 | 57 | 290 | 1.0 | 3.0 | 0.00 | 0.00 | 0.00 | 66 | 1016.9 |
| 20260507100514 | 57 | 316 | 0.0 | 3.0 | 0.00 | 0.00 | 0.00 | 66 | 1016.9 |
| 20260507100044 | 56 | 183 | 0.0 | 3.0 | 0.00 | 0.00 | 0.00 | 72 | 1016.9 |
| 20260507095546 | 56 | 282 | 0.0 | 3.0 | 0.00 | 0.00 | 0.00 | 68 | 1016.9 |
| 20260507095052 | 56 | 192 | 0.0 | 0.0 | 0.00 | 0.00 | 0.00 | 71 | 1016.9 |
| 20260507094513 | 55 | 192 | 0.0 | 1.0 | 0.00 | 0.00 | 0.00 | 72 | 1016.9 |
| 20260507094044 | 55 | 192 | 0.0 | 2.0 | 0.00 | 0.00 | 0.00 | 72 | 1016.8 |
| 20260507093608 | 55 | 321 | 0.0 | 2.0 | 0.00 | 0.00 | 0.00 | 73 | 1016.9 |
| 20260507093033 | 55 | 259 | 0.0 | 0.0 | 0.00 | 0.00 | 0.00 | 75 | 1016.9 |
| 20260507092546 | 55 | 259 | 0.0 | 3.0 | 0.00 | 0.00 | 0.00 | 76 | 1016.8 |
| 20260507092002 | 54 | 259 | 0.0 | 3.0 | 0.00 | 0.00 | 0.00 | 73 | 1016.8 |
| 20260507091535 | 54 | 227 | 0.0 | 3.0 | 0.00 | 0.00 | 0.00 | 73 | 1016.8 |
| 20260507091046 | 54 | 291 | 0.0 | 1.0 | 0.00 | 0.00 | 0.00 | 74 | 1016.8 |
| 20260507090552 | 54 | 259 | 0.0 | 1.0 | 0.00 | 0.00 | 0.00 | 77 | 1016.8 |
| 20260507090103 | 54 | 259 | 0.0 | 3.0 | 0.00 | 0.00 | 0.00 | 76 | 1016.7 |
| 20260507085514 | 53 | 275 | 0.0 | 3.0 | 0.00 | 0.00 | 0.00 | 77 | 1016.8 |
| 20260507085037 | 53 | 278 | 0.0 | 3.0 | 0.00 | 0.00 | 0.00 | 76 | 1016.7 |
| 20260507084559 | 53 | 278 | 0.0 | 3.0 | 0.00 | 0.00 | 0.00 | 76 | 1016.7 |
| 20260507084016 | 53 | 333 | 0.0 | 3.0 | 0.00 | 0.00 | 0.00 | 77 | 1016.7 |
| 20260507083540 | 53 | 283 | 0.0 | 3.0 | 0.00 | 0.00 | 0.00 | 78 | 1016.7 |
| 20260507083038 | 53 | 273 | 0.0 | 2.0 | 0.00 | 0.00 | 0.00 | 78 | 1016.7 |
| 20260507082603 | 53 | 219 | 0.0 | 1.0 | 0.00 | 0.00 | 0.00 | 80 | 1016.6 |
| 20260507082020 | 53 | 298 | 0.0 | 2.0 | 0.00 | 0.00 | 0.00 | 81 | 1016.6 |
| 20260507081545 | 53 | 294 | 0.0 | 1.0 | 0.00 | 0.00 | 0.00 | 81 | 1016.6 |
| 20260507081108 | 52 | 293 | 0.0 | 1.0 | 0.00 | 0.00 | 0.00 | 80 | 1016.6 |
| 20260507080501 | 52 | 239 | 0.0 | 2.0 | 0.00 | 0.00 | 0.00 | 82 | 1016.6 |
| 20260507080020 | 52 | 281 | 0.0 | 2.0 | 0.00 | 0.00 | 0.00 | 82 | 1016.5 |
| 20260507075525 | 52 | 264 | 0.0 | 2.0 | 0.00 | 0.01 | 0.00 | 82 | 1016.5 |
| 20260507075056 | 51 | 245 | 0.0 | 3.0 | 0.00 | 0.01 | 0.00 | 82 | 1016.5 |
| 20260507074514 | 51 | 300 | 0.0 | 2.0 | 0.00 | 0.01 | 0.00 | 83 | 1016.4 |
| 20260507074040 | 51 | 300 | 0.0 | 3.0 | 0.00 | 0.01 | 0.00 | 83 | 1016.3 |
| 20260507073502 | 51 | 263 | 0.0 | 3.0 | 0.00 | 0.01 | 0.00 | 82 | 1016.4 |
| 20260507073030 | 51 | 278 | 0.0 | 2.0 | 0.00 | 0.01 | 0.00 | 83 | 1016.3 |
| 20260507072533 | 51 | 278 | 0.0 | 4.0 | 0.00 | 0.01 | 0.00 | 83 | 1016.3 |
| 20260507072034 | 51 | 235 | 0.0 | 4.0 | 0.00 | 0.01 | 0.00 | 84 | 1016.2 |
| 20260507071600 | 50 | 276 | 0.0 | 1.0 | 0.00 | 0.01 | 0.00 | 83 | 1016.2 |
| 20260507071017 | 50 | 216 | 0.0 | 1.0 | 0.00 | 0.01 | 0.00 | 84 | 1016.2 |
| 20260507070622 | 50 | 314 | 0.0 | 1.0 | 0.00 | 0.01 | 0.00 | 84 | 1016.1 |
| 20260507070025 | 50 | 304 | 0.0 | 1.0 | 0.00 | 0.01 | 0.00 | 84 | 1016.1 |
| 20260507065543 | 50 | 295 | 0.0 | 2.0 | 0.00 | 0.01 | 0.00 | 84 | 1016.2 |
| 20260507065107 | 50 | 294 | 0.0 | 2.0 | 0.00 | 0.01 | 0.00 | 85 | 1016.1 |
| 20260507064627 | 49 | 297 | 0.0 | 2.0 | 0.00 | 0.01 | 0.00 | 85 | 1016.1 |
| 20260507064050 | 49 | 187 | 0.0 | 1.0 | 0.00 | 0.01 | 0.00 | 85 | 1016.0 |
| 20260507063508 | 49 | 187 | 0.0 | 1.0 | 0.00 | 0.01 | 0.00 | 86 | 1016.0 |
| 20260507063048 | 49 | 187 | 0.0 | 1.0 | 0.00 | 0.01 | 0.00 | 85 | 1016.0 |
| 20260507062559 | 49 | 187 | 0.0 | 1.0 | 0.00 | 0.01 | 0.00 | 85 | 1016.0 |
| 20260507062020 | 48 | 160 | 0.0 | 1.0 | 0.00 | 0.01 | 0.00 | 86 | 1015.9 |
| 20260507061549 | 48 | 160 | 0.0 | 1.0 | 0.00 | 0.01 | 0.00 | 86 | 1015.9 |
| 20260507061005 | 48 | 160 | 0.0 | 0.0 | 0.00 | 0.01 | 0.00 | 87 | 1015.9 |
| 20260507060509 | 48 | 160 | 0.0 | 0.0 | 0.00 | 0.01 | 0.00 | 87 | 1015.8 |
| 20260507060039 | 48 | 160 | 0.0 | 0.0 | 0.00 | 0.01 | 0.00 | 88 | 1015.8 |
| 20260507055553 | 48 | 160 | 0.0 | 0.0 | 0.00 | 0.01 | 0.00 | 88 | 1015.7 |
| 20260507055016 | 48 | 160 | 0.0 | 0.0 | 0.00 | 0.01 | 0.00 | 88 | 1015.7 |
| 20260507054543 | 47 | 160 | 0.0 | 0.0 | 0.00 | 0.01 | 0.00 | 88 | 1015.6 |
| 20260507054045 | 47 | 160 | 0.0 | 0.0 | 0.00 | 0.01 | 0.00 | 88 | 1015.6 |
| 20260507053507 | 47 | 160 | 0.0 | 0.0 | 0.00 | 0.01 | 0.00 | 88 | 1015.5 |
| 20260507053033 | 0 | 0.0 | 0.0 | 0.00 | 0.01 | 0.00 | 1015.5 | ||
| 20260507052552 | 0 | 0.0 | 0.0 | 0.00 | 0.01 | 0.00 | 1015.5 | ||
| 20260507052009 | 0 | 0.0 | 0.0 | 0.00 | 0.01 | 0.00 | 1015.4 | ||
| 20260507051512 | 0 | 0.0 | 0.0 | 0.00 | 0.01 | 0.00 | 1015.4 | ||
| 20260507051036 | 0 | 0.0 | 0.0 | 0.00 | 0.01 | 0.00 | 1015.4 | ||
| 20260507050621 | 0 | 0.0 | 0.0 | 0.00 | 0.01 | 0.00 | 1015.4 | ||
| 20260507050019 | 0 | 0.0 | 0.0 | 0.00 | 0.01 | 0.00 | 1015.2 | ||
| 20260507045541 | 0 | 0.0 | 0.0 | 0.00 | 0.01 | 0.00 | 1015.2 | ||
| 20260507045001 | 0 | 0.0 | 0.0 | 0.00 | 0.01 | 0.00 | 1015.2 | ||
| 20260507044629 | 0 | 0.0 | 0.0 | 0.00 | 0.01 | 0.00 | 1015.2 | ||
| 20260507044056 | 0 | 0.0 | 0.0 | 0.00 | 0.01 | 0.00 | 1015.1 | ||
| 20260507043518 | 0 | 0.0 | 0.0 | 0.00 | 0.01 | 0.00 | 1015.1 | ||
| 20260507043047 | 0 | 0.0 | 0.0 | 0.00 | 0.01 | 0.00 | 1015.1 | ||
| 20260507042610 | 46 | 155 | 0.0 | 0.0 | 0.00 | 0.01 | 0.00 | 87 | 1015.1 |
| 20260507042043 | 46 | 155 | 0.0 | 0.0 | 0.00 | 0.01 | 0.00 | 87 | 1015.0 |
| 20260507041607 | 46 | 160 | 0.0 | 0.0 | 0.00 | 0.01 | 0.00 | 88 | 1015.0 |
| 20260507041026 | 47 | 160 | 0.0 | 0.0 | 0.00 | 0.01 | 0.00 | 88 | 1015.0 |
| 20260507040549 | 47 | 160 | 0.0 | 0.0 | 0.00 | 0.01 | 0.00 | 88 | 1014.9 |
| 20260507040105 | 47 | 160 | 0.0 | 0.0 | 0.00 | 0.01 | 0.00 | 88 | 1015.0 |
| 20260507035600 | 47 | 160 | 0.0 | 1.0 | 0.00 | 0.01 | 0.00 | 88 | 1014.9 |
| 20260507035023 | 47 | 160 | 0.0 | 1.0 | 0.00 | 0.01 | 0.00 | 88 | 1014.9 |
| 20260507034654 | 47 | 131 | 0.0 | 1.0 | 0.00 | 0.01 | 0.00 | 88 | 1014.9 |
| 20260507034017 | 47 | 131 | 0.0 | 1.0 | 0.00 | 0.01 | 0.00 | 87 | 1014.8 |
| 20260507033557 | 47 | 146 | 0.0 | 1.0 | 0.00 | 0.01 | 0.00 | 87 | 1014.7 |
| 20260507033105 | 47 | 146 | 0.0 | 0.0 | 0.00 | 0.01 | 0.00 | 87 | 1014.7 |
| 20260507032632 | 47 | 146 | 0.0 | 0.0 | 0.00 | 0.01 | 0.00 | 86 | 1014.7 |
| 20260507032031 | 47 | 146 | 0.0 | 1.0 | 0.00 | 0.01 | 0.00 | 87 | 1014.7 |
| 20260507031604 | 47 | 146 | 0.0 | 1.0 | 0.00 | 0.01 | 0.00 | 87 | 1014.7 |
| 20260507031104 | 47 | 146 | 0.0 | 0.0 | 0.00 | 0.01 | 0.00 | 86 | 1014.6 |
| 20260507030504 | 48 | 285 | 0.0 | 0.0 | 0.00 | 0.01 | 0.00 | 84 | 1014.6 |
| 20260507030031 | 48 | 285 | 0.0 | 0.0 | 0.00 | 0.01 | 0.00 | 83 | 1014.6 |
| 20260507025536 | 48 | 285 | 0.0 | 0.0 | 0.00 | 0.02 | 0.00 | 83 | 1014.6 |
| 20260507025106 | 48 | 284 | 0.0 | 0.0 | 0.00 | 0.02 | 0.00 | 83 | 1014.6 |
| 20260507024504 | 47 | 284 | 0.0 | 0.0 | 0.00 | 0.02 | 0.00 | 84 | 1014.6 |
| 20260507024027 | 47 | 284 | 0.0 | 0.0 | 0.00 | 0.02 | 0.00 | 85 | 1014.5 |
| 20260507023555 | 47 | 284 | 0.0 | 1.0 | 0.00 | 0.02 | 0.00 | 86 | 1014.5 |
| 20260507023021 | 47 | 285 | 0.0 | 1.0 | 0.00 | 0.02 | 0.00 | 86 | 1014.5 |
| 20260507022553 | 47 | 285 | 0.0 | 1.0 | 0.00 | 0.02 | 0.00 | 87 | 1014.5 |
| 20260507022011 | 47 | 285 | 0.0 | 1.0 | 0.00 | 0.02 | 0.00 | 87 | 1014.5 |
| 20260507021603 | 47 | 285 | 0.0 | 0.0 | 0.00 | 0.02 | 0.00 | 88 | 1014.5 |
| 20260507021027 | 47 | 285 | 0.0 | 0.0 | 0.00 | 0.02 | 0.00 | 87 | 1014.4 |
| 20260507020505 | 47 | 285 | 0.0 | 0.0 | 0.00 | 0.02 | 0.00 | 85 | 1014.3 |
| 20260507020038 | 47 | 285 | 0.0 | 0.0 | 0.00 | 0.02 | 0.00 | 85 | 1014.3 |
| 20260507015548 | 47 | 285 | 0.0 | 0.0 | 0.00 | 0.02 | 0.00 | 85 | 1014.2 |
| 20260507015008 | 47 | 285 | 0.0 | 0.0 | 0.00 | 0.02 | 0.00 | 87 | 1014.2 |
| 20260507014538 | 47 | 285 | 0.0 | 0.0 | 0.00 | 0.02 | 0.00 | 87 | 1014.2 |
| 20260507014039 | 47 | 285 | 0.0 | 0.0 | 0.00 | 0.02 | 0.00 | 86 | 1014.1 |
| 20260507013606 | 47 | 285 | 0.0 | 0.0 | 0.00 | 0.02 | 0.00 | 85 | 1014.1 |
| 20260507013044 | 47 | 285 | 0.0 | 0.0 | 0.00 | 0.02 | 0.00 | 83 | 1014.1 |
| 20260507012657 | 47 | 285 | 0.0 | 0.0 | 0.00 | 0.02 | 0.00 | 84 | 1014.1 |
| 20260507012003 | 48 | 285 | 0.0 | 0.0 | 0.00 | 0.02 | 0.00 | 85 | 1014.1 |
| 20260507011529 | 48 | 285 | 0.0 | 0.0 | 0.00 | 0.02 | 0.00 | 86 | 1014.1 |
| 20260507011048 | 48 | 285 | 0.0 | 0.0 | 0.00 | 0.02 | 0.00 | 82 | 1014.2 |
| 20260507010606 | 48 | 285 | 0.0 | 0.0 | 0.00 | 0.02 | 0.00 | 82 | 1014.2 |
| 20260507010003 | 48 | 285 | 0.0 | 0.0 | 0.00 | 0.02 | 0.00 | 82 | 1014.1 |
| 20260507005506 | 48 | 285 | 0.0 | 0.0 | 0.00 | 0.02 | 0.00 | 83 | 1014.1 |
| 20260507005032 | 48 | 285 | 0.0 | 0.0 | 0.00 | 0.02 | 0.00 | 83 | 1014.1 |
| 20260507004554 | 48 | 285 | 0.0 | 0.0 | 0.00 | 0.02 | 0.00 | 81 | 1014.1 |
| 20260507004015 | 48 | 285 | 0.0 | 0.0 | 0.00 | 0.02 | 0.00 | 81 | 1014.1 |
| 20260507003540 | 48 | 285 | 0.0 | 0.0 | 0.00 | 0.02 | 0.00 | 80 | 1014.1 |
| 20260507003106 | 48 | 285 | 0.0 | 0.0 | 0.00 | 0.02 | 0.00 | 80 | 1014.1 |
| 20260507002526 | 48 | 285 | 0.0 | 0.0 | 0.00 | 0.02 | 0.00 | 80 | 1014.0 |
| 20260507002049 | 49 | 285 | 0.0 | 0.0 | 0.00 | 0.02 | 0.00 | 80 | 1014.0 |
| 20260507001556 | 49 | 285 | 0.0 | 0.0 | 0.00 | 0.02 | 0.00 | 80 | 1014.0 |
| 20260507001056 | 49 | 285 | 0.0 | 0.0 | 0.00 | 0.02 | 0.00 | 80 | 1013.9 |
| 20260507000622 | 49 | 285 | 0.0 | 0.0 | 0.00 | 0.02 | 0.00 | 80 | 1014.0 |
| 20260507000002 | 49 | 285 | 0.0 | 0.0 | 0.00 | 0.02 | 0.00 | 80 | 1013.9 |
| 20260506235527 | 49 | 285 | 0.0 | 0.0 | 0.00 | 0.04 | 0.00 | 80 | 1013.8 |
| 20260506235032 | 49 | 285 | 0.0 | 0.0 | 0.00 | 0.04 | 0.00 | 80 | 1013.9 |
| 20260506234555 | 49 | 285 | 0.0 | 1.0 | 0.00 | 0.04 | 0.00 | 80 | 1013.8 |
| 20260506234020 | 49 | 285 | 0.0 | 1.0 | 0.00 | 0.04 | 0.00 | 79 | 1013.8 |
| 20260506233104 | 49 | 285 | 0.0 | 0.0 | 0.00 | 0.04 | 0.00 | 79 | 1013.8 |
| 20260506232512 | 49 | 285 | 0.0 | 0.0 | 0.00 | 0.04 | 0.00 | 79 | 1013.7 |
| 20260506232038 | 49 | 285 | 0.0 | 0.0 | 0.00 | 0.04 | 0.00 | 79 | 1013.6 |
| 20260506231619 | 49 | 285 | 0.0 | 0.0 | 0.00 | 0.04 | 0.00 | 80 | 1013.6 |
| 20260506231027 | 49 | 285 | 0.0 | 0.0 | 0.00 | 0.04 | 0.00 | 80 | 1013.6 |
| 20260506230551 | 49 | 285 | 0.0 | 0.0 | 0.00 | 0.04 | 0.00 | 79 | 1013.6 |
| 20260506230103 | 49 | 285 | 0.0 | 0.0 | 0.00 | 0.04 | 0.00 | 79 | 1013.5 |
| 20260506225603 | 49 | 285 | 0.0 | 0.0 | 0.00 | 0.07 | 0.00 | 79 | 1013.5 |
| 20260506225023 | 49 | 285 | 0.0 | 0.0 | 0.00 | 0.07 | 0.00 | 79 | 1013.5 |
| 20260506224545 | 49 | 285 | 0.0 | 0.0 | 0.00 | 0.07 | 0.00 | 78 | 1013.5 |
| 20260506224003 | 49 | 285 | 0.0 | 0.0 | 0.00 | 0.07 | 0.00 | 78 | 1013.4 |
| 20260506223531 | 49 | 285 | 0.0 | 0.0 | 0.00 | 0.07 | 0.00 | 78 | 1013.4 |
| 20260506223054 | 49 | 285 | 0.0 | 0.0 | 0.00 | 0.07 | 0.00 | 78 | 1013.4 |
| 20260506222517 | 48 | 285 | 0.0 | 0.0 | 0.00 | 0.07 | 0.00 | 79 | 1013.4 |
| 20260506222042 | 48 | 285 | 0.0 | 0.0 | 0.00 | 0.07 | 0.00 | 79 | 1013.4 |
| 20260506221502 | 48 | 285 | 0.0 | 0.0 | 0.00 | 0.07 | 0.00 | 80 | 1013.3 |
| 20260506221026 | 48 | 285 | 0.0 | 0.0 | 0.00 | 0.07 | 0.00 | 80 | 1013.3 |
| 20260506220550 | 48 | 285 | 0.0 | 0.0 | 0.00 | 0.07 | 0.00 | 80 | 1013.4 |
| 20260506220058 | 48 | 285 | 0.0 | 0.0 | 0.00 | 0.07 | 0.00 | 80 | 1013.3 |
| 20260506215514 | 48 | 285 | 0.0 | 0.0 | 0.00 | 0.10 | 0.07 | 80 | 1013.4 |
| 20260506215036 | 47 | 285 | 0.0 | 0.0 | 0.00 | 0.10 | 0.07 | 81 | 1013.4 |
| 20260506214543 | 47 | 285 | 0.0 | 0.0 | 0.00 | 0.10 | 0.07 | 81 | 1013.4 |
| 20260506214017 | 47 | 285 | 0.0 | 0.0 | 0.00 | 0.10 | 0.07 | 82 | 1013.4 |
| 20260506213516 | 47 | 285 | 0.0 | 0.0 | 0.00 | 0.10 | 0.07 | 82 | 1013.3 |
| 20260506213022 | 47 | 285 | 0.0 | 0.0 | 0.00 | 0.10 | 0.07 | 82 | 1013.2 |
| 20260506212549 | 47 | 285 | 0.0 | 0.0 | 0.00 | 0.10 | 0.07 | 82 | 1013.2 |
| 20260506212012 | 47 | 285 | 0.0 | 0.0 | 0.00 | 0.10 | 0.07 | 82 | 1013.2 |
| 20260506211523 | 47 | 285 | 0.0 | 0.0 | 0.00 | 0.10 | 0.07 | 82 | 1013.1 |
| 20260506211022 | 47 | 285 | 0.0 | 0.0 | 0.00 | 0.10 | 0.07 | 81 | 1013.1 |
| 20260506210548 | 47 | 285 | 0.0 | 0.0 | 0.00 | 0.10 | 0.07 | 81 | 1013.0 |
| 20260506210055 | 47 | 285 | 0.0 | 0.0 | 0.00 | 0.10 | 0.07 | 81 | 1013.1 |
| 20260506205551 | 47 | 285 | 0.0 | 0.0 | 0.00 | 0.13 | 0.07 | 81 | 1013.1 |
| 20260506205019 | 47 | 285 | 0.0 | 0.0 | 0.00 | 0.13 | 0.07 | 81 | 1013.0 |
| 20260506204537 | 47 | 285 | 0.0 | 0.0 | 0.00 | 0.13 | 0.07 | 81 | 1013.0 |
| 20260506204041 | 47 | 285 | 0.0 | 0.0 | 0.00 | 0.13 | 0.07 | 80 | 1013.0 |
| 20260506203607 | 47 | 285 | 0.0 | 0.0 | 0.00 | 0.13 | 0.07 | 80 | 1012.9 |
| 20260506203026 | 48 | 285 | 0.0 | 0.0 | 0.00 | 0.13 | 0.07 | 80 | 1012.9 |
| 20260506202552 | 48 | 285 | 0.0 | 0.0 | 0.00 | 0.13 | 0.07 | 79 | 1012.8 |
| 20260506202010 | 48 | 285 | 0.0 | 0.0 | 0.00 | 0.13 | 0.07 | 79 | 1012.8 |
| 20260506201536 | 49 | 285 | 0.0 | 0.0 | 0.00 | 0.13 | 0.07 | 78 | 1012.8 |
| 20260506201100 | 49 | 285 | 0.0 | 1.0 | 0.00 | 0.13 | 0.07 | 78 | 1012.7 |
| 20260506200502 | 49 | 285 | 0.0 | 2.0 | 0.00 | 0.13 | 0.07 | 77 | 1012.7 |
| 20260506200039 | 49 | 304 | 0.0 | 3.0 | 0.00 | 0.13 | 0.07 | 77 | 1012.7 |
| 20260506195554 | 50 | 264 | 0.0 | 4.0 | 0.00 | 0.15 | 0.07 | 77 | 1012.7 |
| 20260506195017 | 50 | 312 | 1.0 | 4.0 | 0.00 | 0.15 | 0.07 | 76 | 1012.6 |
| 20260506194546 | 50 | 290 | 0.0 | 4.0 | 0.00 | 0.15 | 0.07 | 75 | 1012.6 |
| 20260506194006 | 50 | 319 | 1.0 | 4.0 | 0.00 | 0.15 | 0.07 | 75 | 1012.5 |
| 20260506193529 | 51 | 332 | 0.0 | 4.0 | 0.00 | 0.15 | 0.07 | 74 | 1012.5 |
| 20260506193033 | 51 | 322 | 1.0 | 4.0 | 0.00 | 0.15 | 0.07 | 74 | 1012.4 |
| 20260506192556 | 51 | 355 | 1.0 | 4.0 | 0.00 | 0.15 | 0.07 | 73 | 1012.4 |
| 20260506192020 | 52 | 287 | 1.0 | 3.0 | 0.00 | 0.15 | 0.07 | 73 | 1012.3 |
| 20260506191546 | 52 | 284 | 0.0 | 4.0 | 0.00 | 0.15 | 0.07 | 72 | 1012.1 |
| 20260506191009 | 52 | 324 | 1.0 | 3.0 | 0.00 | 0.15 | 0.07 | 71 | 1012.1 |
| 20260506190513 | 52 | 300 | 0.0 | 3.0 | 0.00 | 0.15 | 0.07 | 70 | 1012.0 |
| 20260506190036 | 52 | 280 | 0.0 | 3.0 | 0.00 | 0.15 | 0.07 | 70 | 1011.9 |
| 20260506185555 | 52 | 300 | 1.0 | 3.0 | 0.00 | 0.15 | 0.07 | 69 | 1011.9 |
| 20260506185012 | 52 | 307 | 1.0 | 4.0 | 0.00 | 0.15 | 0.07 | 69 | 1011.8 |
| 20260506184537 | 53 | 340 | 1.0 | 4.0 | 0.00 | 0.15 | 0.07 | 69 | 1011.7 |
| 20260506184102 | 53 | 306 | 0.0 | 2.0 | 0.00 | 0.15 | 0.07 | 71 | 1011.6 |
| 20260506183522 | 53 | 13 | 0.0 | 2.0 | 0.00 | 0.15 | 0.07 | 70 | 1011.5 |
| 20260506183049 | 53 | 271 | 0.0 | 1.0 | 0.00 | 0.15 | 0.07 | 71 | 1011.5 |
| 20260506182510 | 53 | 285 | 0.0 | 3.0 | 0.00 | 0.15 | 0.07 | 72 | 1011.4 |
| 20260506182035 | 53 | 286 | 1.0 | 3.0 | 0.00 | 0.15 | 0.07 | 71 | 1011.4 |
| 20260506181538 | 53 | 344 | 0.0 | 3.0 | 0.00 | 0.15 | 0.07 | 70 | 1011.3 |
| 20260506181103 | 53 | 306 | 0.0 | 5.0 | 0.00 | 0.15 | 0.07 | 71 | 1011.2 |
| 20260506180507 | 54 | 333 | 1.0 | 4.0 | 0.00 | 0.15 | 0.07 | 72 | 1011.1 |
| 20260506180030 | 54 | 295 | 0.0 | 7.0 | 0.00 | 0.15 | 0.07 | 72 | 1011.1 |
| 20260506175559 | 54 | 288 | 0.0 | 7.0 | 0.00 | 0.15 | 0.07 | 71 | 1011.0 |
| 20260506175014 | 54 | 223 | 0.0 | 2.0 | 0.00 | 0.15 | 0.07 | 72 | 1010.9 |
| 20260506174541 | 54 | 215 | 0.0 | 2.0 | 0.00 | 0.15 | 0.07 | 71 | 1010.9 |
| 20260506174003 | 54 | 206 | 0.0 | 1.0 | 0.00 | 0.15 | 0.07 | 72 | 1010.7 |
| 20260506173527 | 54 | 288 | 0.0 | 3.0 | 0.00 | 0.15 | 0.07 | 72 | 1010.7 |
| 20260506173042 | 54 | 224 | 0.0 | 3.0 | 0.00 | 0.15 | 0.07 | 72 | 1010.6 |
| 20260506172600 | 54 | 251 | 0.0 | 2.0 | 0.00 | 0.15 | 0.07 | 72 | 1010.6 |
| 20260506172021 | 54 | 212 | 0.0 | 2.0 | 0.00 | 0.15 | 0.07 | 74 | 1010.6 |
| 20260506171553 | 54 | 212 | 0.0 | 2.0 | 0.00 | 0.15 | 0.07 | 73 | 1010.6 |
| 20260506171009 | 54 | 264 | 0.0 | 3.0 | 0.00 | 0.15 | 0.07 | 72 | 1010.5 |
| 20260506170536 | 54 | 218 | 0.0 | 3.0 | 0.00 | 0.15 | 0.07 | 73 | 1010.5 |
| 20260506170039 | 55 | 218 | 0.0 | 3.0 | 0.00 | 0.15 | 0.07 | 74 | 1010.5 |
| 20260506165600 | 55 | 267 | 0.0 | 3.0 | 0.00 | 0.15 | 0.07 | 74 | 1010.4 |
| 20260506165127 | 55 | 196 | 0.0 | 3.0 | 0.00 | 0.15 | 0.07 | 74 | 1010.4 |
| 20260506164614 | 55 | 219 | 0.0 | 1.0 | 0.00 | 0.15 | 0.07 | 74 | 1010.3 |
| 20260506164101 | 55 | 292 | 0.0 | 2.0 | 0.00 | 0.15 | 0.07 | 75 | 1010.3 |
| 20260506163524 | 55 | 298 | 0.0 | 2.0 | 0.00 | 0.15 | 0.07 | 75 | 1010.3 |
| 20260506163058 | 55 | 209 | 0.0 | 2.0 | 0.00 | 0.15 | 0.07 | 76 | 1010.3 |
| 20260506162555 | 55 | 342 | 0.0 | 2.0 | 0.00 | 0.15 | 0.07 | 76 | 1010.3 |
| 20260506162017 | 55 | 281 | 0.0 | 2.0 | 0.00 | 0.15 | 0.07 | 76 | 1010.2 |
| 20260506161543 | 55 | 192 | 0.0 | 3.0 | 0.00 | 0.15 | 0.07 | 76 | 1010.3 |
| 20260506161004 | 55 | 312 | 0.0 | 3.0 | 0.00 | 0.15 | 0.07 | 75 | 1010.3 |
| 20260506160508 | 55 | 326 | 0.0 | 1.0 | 0.00 | 0.15 | 0.07 | 75 | 1010.3 |
| 20260506160037 | 55 | 301 | 0.0 | 2.0 | 0.00 | 0.15 | 0.07 | 75 | 1010.3 |
| 20260506155558 | 54 | 319 | 0.0 | 4.0 | 0.00 | 0.15 | 0.07 | 74 | 1010.3 |
| 20260506155021 | 54 | 316 | 0.0 | 4.0 | 0.00 | 0.15 | 0.07 | 74 | 1010.3 |
| 20260506154551 | 54 | 293 | 0.0 | 3.0 | 0.00 | 0.15 | 0.07 | 73 | 1010.3 |
| 20260506154009 | 54 | 229 | 1.0 | 4.0 | 0.00 | 0.15 | 0.07 | 73 | 1010.3 |
| 20260506153533 | 54 | 310 | 1.0 | 4.0 | 0.00 | 0.15 | 0.07 | 73 | 1010.3 |
| 20260506153038 | 55 | 334 | 0.0 | 3.0 | 0.00 | 0.15 | 0.07 | 72 | 1010.3 |
| 20260506152606 | 55 | 323 | 1.0 | 5.0 | 0.00 | 0.15 | 0.07 | 71 | 1010.3 |
| 20260506152027 | 55 | 221 | 0.0 | 10.0 | 0.00 | 0.15 | 0.07 | 71 | 1010.3 |
| 20260506151550 | 55 | 333 | 1.0 | 10.0 | 0.00 | 0.15 | 0.07 | 71 | 1010.3 |
| 20260506151019 | 55 | 266 | 1.0 | 7.0 | 0.00 | 0.15 | 0.07 | 71 | 1010.2 |
| 20260506150522 | 56 | 306 | 1.0 | 4.0 | 0.00 | 0.15 | 0.07 | 70 | 1010.2 |
| 20260506150050 | 56 | 226 | 1.0 | 5.0 | 0.00 | 0.15 | 0.07 | 72 | 1010.2 |
| 20260506145503 | 56 | 215 | 0.0 | 6.0 | 0.00 | 0.15 | 0.07 | 70 | 1010.2 |
| 20260506145024 | 56 | 316 | 2.0 | 7.0 | 0.00 | 0.15 | 0.07 | 68 | 1010.2 |
| 20260506144546 | 57 | 212 | 2.0 | 7.0 | 0.00 | 0.15 | 0.07 | 65 | 1010.1 |
| 20260506144058 | 58 | 317 | 2.0 | 6.0 | 0.00 | 0.15 | 0.07 | 69 | 1010.1 |
| 20260506143519 | 57 | 319 | 2.0 | 6.0 | 0.00 | 0.15 | 0.07 | 71 | 1010.1 |
| 20260506143044 | 57 | 243 | 2.0 | 7.0 | 0.00 | 0.15 | 0.07 | 70 | 1010.0 |
| 20260506142501 | 57 | 317 | 2.0 | 7.0 | 0.00 | 0.15 | 0.07 | 70 | 1010.0 |
| 20260506142025 | 57 | 257 | 2.0 | 5.0 | 0.00 | 0.15 | 0.07 | 71 | 1010.1 |
| 20260506141607 | 57 | 11 | 0.0 | 4.0 | 0.00 | 0.15 | 0.07 | 70 | 1010.1 |
| 20260506141021 | 57 | 11 | 0.0 | 5.0 | 0.00 | 0.15 | 0.07 | 71 | 1010.0 |
| 20260506140548 | 57 | 288 | 2.0 | 5.0 | 0.00 | 0.15 | 0.07 | 71 | 1009.9 |
| 20260506140051 | 57 | 321 | 0.0 | 9.0 | 0.00 | 0.15 | 0.07 | 72 | 1010.0 |
| 20260506135510 | 57 | 147 | 2.0 | 9.0 | 0.00 | 0.15 | 0.07 | 71 | 1010.0 |
| 20260506135040 | 57 | 222 | 2.0 | 8.0 | 0.00 | 0.15 | 0.07 | 71 | 1010.0 |
| 20260506134605 | 58 | 262 | 2.0 | 5.0 | 0.00 | 0.15 | 0.07 | 70 | 1010.0 |
| 20260506134002 | 58 | 181 | 1.0 | 4.0 | 0.00 | 0.15 | 0.07 | 74 | 1010.0 |
| 20260506133528 | 58 | 254 | 0.0 | 3.0 | 0.00 | 0.15 | 0.07 | 73 | 1010.0 |
| 20260506133102 | 57 | 240 | 0.0 | 4.0 | 0.00 | 0.15 | 0.07 | 73 | 1010.0 |
| 20260506132512 | 57 | 326 | 0.0 | 5.0 | 0.00 | 0.15 | 0.07 | 71 | 1010.0 |
| 20260506132038 | 56 | 169 | 1.0 | 6.0 | 0.00 | 0.15 | 0.07 | 72 | 1010.0 |
| 20260506131513 | 56 | 213 | 2.0 | 6.0 | 0.00 | 0.15 | 0.07 | 72 | 1010.0 |
| 20260506131035 | 56 | 180 | 0.0 | 4.0 | 0.00 | 0.15 | 0.07 | 73 | 1010.0 |